This is the latest recevied weather packets stored in our database for station/object MeshWX-2. If no packets are shown the sender has not sent any weather packets the latest 10 day(s).
| Time | Temp. | Humidity | Pressure | Rain* | Wind** | Luminosity | Snow |
|---|---|---|---|---|---|---|---|
| 1788502135 | 17.22° C | 45% | 884.4 hPa | - | - | - | - |
| 1788500122 | 17.22° C | 45% | 884.4 hPa | - | - | - | - |
| 1788500094 | 16.11° C | 45% | 884.3 hPa | - | - | - | - |
| 1788498020 | 16.11° C | 45% | 884.3 hPa | - | - | - | - |
| 1788497994 | 15.56° C | 45% | 884.1 hPa | - | - | - | - |
| 1788496039 | 15.56° C | 45% | 884.1 hPa | - | - | - | - |
| 1788496013 | 15.56° C | 44% | 883.9 hPa | - | - | - | - |
| 1788493998 | 15.56° C | 44% | 883.9 hPa | - | - | - | - |
| 1788493972 | 15.56° C | 44% | 883.9 hPa | - | - | - | - |
| 1788491957 | 15.56° C | 44% | 883.9 hPa | - | - | - | - |
| 1788491933 | 16.11° C | 44% | 883.8 hPa | - | - | - | - |
| 1788489977 | 16.11° C | 44% | 883.8 hPa | - | - | - | - |
| 1788489951 | 16.67° C | 44% | 883.7 hPa | - | - | - | - |
| 1788487996 | 16.67° C | 44% | 883.7 hPa | - | - | - | - |
| 1788487971 | 16.11° C | 44% | 883.7 hPa | - | - | - | - |
| 1788486032 | 16.11° C | 44% | 883.7 hPa | - | - | - | - |
| 1788486017 | 16.11° C | 44% | 883.7 hPa | - | - | - | - |
| 1788485990 | 16.11° C | 44% | 883.6 hPa | - | - | - | - |
| 1788484034 | 16.11° C | 44% | 883.6 hPa | - | - | - | - |
| 1788484009 | 16.11° C | 44% | 883.5 hPa | - | - | - | - |
| 1788481994 | 16.11° C | 44% | 883.5 hPa | - | - | - | - |
| 1788481970 | 16.11° C | 44% | 883.6 hPa | - | - | - | - |
| 1788479953 | 16.11° C | 44% | 883.6 hPa | - | - | - | - |
| 1788479928 | 16.67° C | 44% | 883.6 hPa | - | - | - | - |
| 1788479913 | 16.67° C | 44% | 883.6 hPa | - | - | - | - |
* Rain since midnight (hover to see other rain measurements)
** Current wind speed in m/s (hover to see current wind gust speed)